TimeMST,TemperatureF,Dew PointF,Humidity,Sea Level PressureIn,VisibilityMPH,Wind Direction,Wind SpeedMPH,Gust SpeedMPH,PrecipitationIn,Events,Conditions,WindDirDegrees,DateUTC
12:53 AM,10.9,-5.1,49,30.04,10.0,Calm,Calm,-,N/A,,Clear,0,2013-01-07 07:53:00
1:53 AM,15.1,-5.1,41,29.98,10.0,Calm,Calm,-,N/A,,Clear,0,2013-01-07 08:53:00
2:53 AM,14.0,-6.0,41,29.98,10.0,Calm,Calm,-,N/A,,Clear,0,2013-01-07 09:53:00
3:53 AM,9.0,-6.0,51,30.01,10.0,ENE,8.1,-,N/A,,Clear,60,2013-01-07 10:53:00
4:53 AM,9.0,-7.1,48,30.02,10.0,ENE,3.5,-,N/A,,Clear,60,2013-01-07 11:53:00
5:53 AM,12.0,-8.0,41,30.02,10.0,NNE,3.5,-,N/A,,Clear,30,2013-01-07 12:53:00
6:53 AM,8.1,-9.0,46,30.09,10.0,Calm,Calm,-,N/A,,Clear,0,2013-01-07 13:53:00
7:53 AM,7.0,-9.0,48,30.11,10.0,NNE,5.8,-,N/A,,Clear,30,2013-01-07 14:53:00
8:53 AM,16.0,-8.0,34,30.07,10.0,Calm,Calm,-,N/A,,Clear,0,2013-01-07 15:53:00
9:53 AM,23.0,-9.0,24,30.02,10.0,Calm,Calm,-,N/A,,Clear,0,2013-01-07 16:53:00
10:53 AM,30.0,-11.0,17,29.95,10.0,Calm,Calm,-,N/A,,Clear,0,2013-01-07 17:53:00
11:53 AM,34.0,-8.0,16,29.91,10.0,Calm,Calm,-,N/A,,Clear,0,2013-01-07 18:53:00
12:53 PM,34.0,-14.1,12,29.90,10.0,Calm,Calm,-,N/A,,Clear,0,2013-01-07 19:53:00
1:53 PM,32.0,-2.0,23,29.88,10.0,South,6.9,-,N/A,,Clear,180,2013-01-07 20:53:00
2:53 PM,37.9,-11.9,12,29.84,10.0,Calm,Calm,-,N/A,,Clear,0,2013-01-07 21:53:00
3:53 PM,34.0,-7.1,17,29.91,10.0,NW,8.1,-,N/A,,Clear,320,2013-01-07 22:53:00
4:53 PM,28.0,-9.0,20,29.96,10.0,NW,9.2,-,N/A,,Clear,320,2013-01-07 23:53:00
5:53 PM,25.0,-9.0,22,29.96,10.0,NW,11.5,-,N/A,,Clear,310,2013-01-08 00:53:00
6:53 PM,18.0,-5.1,36,30.05,10.0,NNE,6.9,-,N/A,,Clear,30,2013-01-08 01:53:00
7:53 PM,19.0,-9.0,29,30.03,10.0,NE,6.9,-,N/A,,Clear,40,2013-01-08 02:53:00
8:53 PM,18.0,-9.9,29,29.96,10.0,North,10.4,-,N/A,,Clear,10,2013-01-08 03:53:00
9:53 PM,17.1,-11.9,27,29.94,10.0,NNE,11.5,-,N/A,,Clear,30,2013-01-08 04:53:00
10:53 PM,18.0,-16.1,21,29.87,10.0,North,9.2,-,N/A,,Clear,10,2013-01-08 05:53:00
11:53 PM,14.0,-14.1,28,29.87,10.0,North,4.6,-,N/A,,Clear,10,2013-01-08 06:53:00